Location: Zagreb
(45.8000°N, 16.0000°E)
Time: 21:24:39
(UTC+02:00)

Vanguard 1 Rocket - All Passes

Search period start: 09 August 2022 00:00
Search period end: 19 August 2022 00:00
Orbit: 651 x 4225 km, 34.3° (Epoch: 08 August)

Date Brightness Start Highest point End Pass type
(mag) Time Alt. Az. Time Alt. Az. Time Alt. Az.
09 Aug - 07:56:28 10° SSE 08:02:14 14° ESE 08:09:26 10° E daylight
09 Aug - 10:13:38 10° SSW 10:26:36 42° SSE 10:47:44 10° E daylight
09 Aug - 12:37:36 10° WSW 12:55:22 61° S 13:20:47 10° ESE daylight
09 Aug - 15:04:49 10° W 15:26:34 55° SSW 15:50:15 10° SE daylight
09 Aug - 17:35:51 10° W 17:56:00 32° SW 18:13:59 10° S daylight
10 Aug - 09:04:13 10° SSW 09:14:38 30° SE 09:31:08 10° E daylight
10 Aug - 11:26:15 10° SW 11:41:22 55° SSE 12:05:33 10° E daylight
10 Aug - 13:52:00 10° W 14:11:48 59° S 14:36:57 10° ESE daylight
10 Aug - 16:20:53 10° W 16:42:24 42° SSW 17:03:34 10° SSE daylight
10 Aug - 18:57:19 10° W 19:09:44 16° SW 19:21:02 10° SSW daylight
11 Aug - 07:56:28 10° SSE 08:03:33 18° SE 08:13:18 10° E daylight
11 Aug - 10:15:39 10° SW 10:28:17 46° SSE 10:49:40 10° E daylight
11 Aug - 12:39:57 10° WSW 12:57:14 60° S 13:22:35 10° ESE daylight
11 Aug - 15:07:11 10° W 15:28:09 50° SSW 15:51:41 10° SE daylight
11 Aug - 17:38:50 10° W 17:57:08 26° SW 18:14:12 10° S daylight
12 Aug - 09:05:54 10° SSW 09:16:12 34° SE 09:33:20 10° E daylight
12 Aug - 11:28:34 10° WSW 11:43:14 57° SSE 12:07:22 10° E daylight
12 Aug - 13:54:25 10° W 14:13:35 57° SSW 14:38:33 10° SE daylight
12 Aug - 16:23:28 10° W 16:43:45 37° SW 17:04:23 10° SSE daylight
12 Aug - 19:04:28 10° WSW 19:10:44 11° WSW 19:16:47 10° SW daylight
13 Aug - 07:57:23 10° S 08:05:01 21° SE 08:16:20 10° E daylight
13 Aug - 10:17:50 10° SW 10:30:07 50° SSE 10:51:32 10° E daylight
13 Aug - 12:42:22 10° WSW 12:59:08 59° S 13:24:17 10° ESE daylight
13 Aug - 15:09:40 10° W 15:29:43 46° SSW 15:52:51 10° SE daylight
13 Aug - 17:42:24 10° W 17:58:16 21° SW 18:13:38 10° S daylight
14 Aug - 09:07:51 10° SSW 09:17:54 38° SE 09:35:23 10° E daylight
14 Aug - 11:30:58 10° WSW 11:45:12 58° S 12:09:07 10° ESE daylight
14 Aug - 13:56:53 10° W 14:15:21 53° SSW 14:39:57 10° SE daylight
14 Aug - 16:26:18 10° W 16:45:04 31° SW 17:04:46 10° S daylight
15 Aug - 07:58:49 10° S 08:06:37 25° SE 08:18:56 10° E daylight
15 Aug - 10:20:10 10° SW 10:32:02 52° SSE 10:53:21 10° E daylight
15 Aug - 12:44:51 10° W 13:01:05 57° S 13:25:51 10° ESE daylight
15 Aug - 15:12:17 10° W 15:31:15 40° SSW 15:53:43 10° SSE daylight
15 Aug - 17:47:00 10° W 17:59:25 16° SW 18:11:49 10° SSW daylight
16 Aug - 06:51:59 10° SSE 06:56:02 13° SE 07:01:03 10° ESE daylight
16 Aug - 09:09:59 10° SW 09:19:46 42° SSE 09:37:21 10° E daylight
16 Aug - 11:33:27 10° WSW 11:47:14 58° S 12:10:47 10° ESE daylight
16 Aug - 13:59:26 10° W 14:17:07 48° SSW 14:41:07 10° SE daylight
16 Aug - 16:29:32 10° W 16:46:23 26° SW 17:04:32 10° S daylight
17 Aug - 08:00:35 10° SSW 08:08:21 29° SE 08:21:16 10° E daylight
17 Aug - 10:22:36 10° WSW 10:34:06 54° SSE 10:55:07 10° E daylight
17 Aug - 12:47:24 10° W 13:03:02 54° SSW 13:27:14 10° SE daylight
17 Aug - 15:15:05 10° W 15:32:48 35° SW 15:54:10 10° SSE daylight
17 Aug - 17:54:41 10° WSW 18:00:39 11° SW 18:06:40 10° SW daylight
18 Aug - 06:52:35 10° SSE 06:57:41 17° SE 07:04:40 10° E daylight
18 Aug - 09:12:17 10° SW 09:21:47 45° SSE 09:39:15 10° E daylight
18 Aug - 11:36:00 10° WSW 11:49:19 56° S 12:12:21 10° ESE daylight
18 Aug - 14:02:05 10° W 14:18:53 43° SSW 14:41:59 10° SE daylight
18 Aug - 16:33:24 10° W 16:47:46 20° SW 17:03:26 10° S daylight
